Location: Beddau
(51.5575°N, 3.3561°W)
Time: 02:59:07
(UTC+00:00)

Cosmos 1821 Rocket - Pass Details

Date: 03 March 2021
Orbit: 945 x 1005 km, 82.9° (Epoch: 12 April)

Event Time Altitude Azimuth Distance (km) Brightness Sun altitude
Exits shadow 20:42:01 59° 83° (E) 1,112 3.9 -25.8°
Drops below altitude 10° 20:47:49 10° 16° (NNE) 2,703 6.4 -26.6°
Sets 20:50:20 0° 13° (NNE) 3,646 7.2 -27.0°
